Worcester, MA

11:12 AM EDT on July 25, 2016 (GMT -0400)
Worcester Regional

Weather History for KORH - May, 2013

Change the Weather History Date:

Sunday, May 26, 2013

  Actual Average Record
Temperature  
Mean Temperature 45 °F 59 °F  
Max Temperature 54 °F 69 °F 94 °F (2010)
Min Temperature 36 °F 50 °F 35 °F (1972)
Degree Days  
Heating Degree Days 20 7  
Month to date heating degree days 235 257  
Since 1 July heating degree days 6198 6604  
Cooling Degree Days 0 1  
Month to date cooling degree days 3 11  
Year to date cooling degree days 3 14  
Moisture  
Dew Point 36 °F    
Average Humidity 71    
Maximum Humidity 92    
Minimum Humidity 50    
Precipitation  
Precipitation 0.02 in 0.15 in 1.73 in (2003)
Month to date precipitation 3.40 3.45  
Year to date precipitation 15.76 18.49  
Sea Level Pressure  
Sea Level Pressure 29.87 in    
Wind  
Wind Speed 18 mph (WNW)    
Max Wind Speed 33 mph    
Max Gust Speed 44 mph    
Visibility 10 miles    
Events Rain    
T = Trace of Precipitation, MM = Missing Value Source: NWS Daily Summary

Daily Weather History Graph

Daily Weather History Graph

Search for Another Location

Airport or City:

Trip Planner

Search our weather history database for the weather conditions in past years. The results will help you decide how hot, cold, wet, or windy it might be!

Date:

Astronomy

May. 26, 2013 Rise Set
Actual Time 5:16 AM EDT 8:12 PM EDT
Civil Twilight 4:43 AM EDT 8:46 PM EDT
Nautical Twilight 4:01 AM EDT 9:28 PM EDT
Astronomical Twilight 3:12 AM EDT 10:18 PM EDT
Moon 9:56 PM EDT (5/26) 6:43 AM EDT (5/26)
Length of Visible Light 16h 02m
Length of Day
14h 55m
Waning Gibbous, 97% of the Moon is Illuminated
May 26
Waning Gibbous
May 31
Last Quarter
Jun 8
New
Jun 16
First Quarter
Jun 23
Full

Hourly Weather History & Observations

Time (EDT) Temp. Windchill Dew Point Humidity Pressure Visibility Wind Dir Wind Speed Gust Speed Precip Events Conditions
12:54 AM 37.9 °F 27.9 °F 35.1 °F 89% 29.76 in 10.0 mi WNW 19.6 mph 28.8 mph N/A   Overcast
1:54 AM 36.0 °F 25.6 °F 35.1 °F 97% 29.75 in 10.0 mi WNW 18.4 mph 26.5 mph 0.01 in Rain Light Rain
2:14 AM 37.0 °F 27.7 °F 35.1 °F 93% 29.73 in 8.0 mi WNW 16.1 mph - 0.00 in Rain Light Rain
2:54 AM 37.0 °F 26.7 °F 35.1 °F 93% 29.75 in 6.0 mi WNW 19.6 mph 29.9 mph 0.00 in Rain Light Rain
3:05 AM 37.0 °F 27.0 °F 35.1 °F 93% 29.72 in 7.0 mi WNW 18.4 mph 28.8 mph 0.00 in Rain Light Rain
3:43 AM 37.9 °F 27.6 °F 36.0 °F 93% 29.72 in 10.0 mi WNW 20.7 mph 29.9 mph 0.00 in   Overcast
3:54 AM 37.9 °F 28.2 °F 36.0 °F 93% 29.74 in 10.0 mi WNW 18.4 mph 31.1 mph 0.00 in   Overcast
4:23 AM 37.9 °F 27.1 °F 35.1 °F 89% 29.72 in 10.0 mi WNW 23.0 mph 33.4 mph N/A   Overcast
4:41 AM 39.0 °F 29.6 °F 35.1 °F 86% 29.73 in 10.0 mi WNW 18.4 mph 29.9 mph N/A   Overcast
4:54 AM 39.0 °F 29.9 °F 35.1 °F 86% 29.75 in 10.0 mi NW 17.3 mph 31.1 mph N/A   Overcast
5:54 AM 39.0 °F 30.6 °F 36.0 °F 89% 29.78 in 10.0 mi WNW 15.0 mph 26.5 mph N/A   Overcast
6:54 AM 41.0 °F 31.9 °F 37.0 °F 86% 29.80 in 10.0 mi WNW 19.6 mph 26.5 mph N/A   Overcast
7:54 AM 42.1 °F 33.6 °F 36.0 °F 79% 29.81 in 10.0 mi WNW 18.4 mph 36.8 mph N/A   Mostly Cloudy
8:54 AM 45.0 °F 36.9 °F 36.0 °F 71% 29.83 in 10.0 mi WNW 20.7 mph 29.9 mph N/A   Mostly Cloudy
9:01 AM 46.0 °F 37.8 °F 36.0 °F 68% 29.81 in 10.0 mi WNW 23.0 mph 32.2 mph N/A   Mostly Cloudy
9:10 AM 46.9 °F - 37.0 °F 68% 29.81 in 10.0 mi NW 21.9 mph 34.5 mph N/A   Scattered Clouds
9:54 AM 46.9 °F - 36.0 °F 66% 29.85 in 10.0 mi WNW 29.9 mph 41.4 mph N/A   Overcast
10:54 AM 48.0 °F - 35.1 °F 61% 29.86 in 10.0 mi NW 17.3 mph 26.5 mph N/A   Overcast
11:54 AM 51.1 °F - 36.0 °F 56% 29.89 in 10.0 mi West 18.4 mph 28.8 mph N/A   Overcast
12:54 PM 52.0 °F - 34.0 °F 50% 29.90 in 10.0 mi NW 26.5 mph 38.0 mph 0.00 in   Overcast
1:54 PM 52.0 °F - 35.1 °F 53% 29.92 in 10.0 mi NW 18.4 mph 28.8 mph N/A   Overcast
2:54 PM 53.1 °F - 35.1 °F 50% 29.94 in 10.0 mi NW 21.9 mph 34.5 mph N/A   Overcast
3:54 PM 50.0 °F - 39.0 °F 66% 29.96 in 10.0 mi WNW 17.3 mph - 0.00 in Rain Light Rain
4:54 PM 52.0 °F - 37.9 °F 59% 29.98 in 10.0 mi WNW 19.6 mph 26.5 mph 0.00 in   Scattered Clouds
5:54 PM 51.1 °F - 39.0 °F 63% 30.01 in 10.0 mi NW 18.4 mph 25.3 mph 0.01 in   Mostly Cloudy
6:54 PM 51.1 °F - 36.0 °F 56% 30.03 in 10.0 mi NW 19.6 mph 28.8 mph N/A   Scattered Clouds
7:54 PM 48.0 °F - 37.0 °F 66% 30.06 in 10.0 mi WNW 19.6 mph 28.8 mph N/A   Clear
8:54 PM 46.9 °F - 37.0 °F 68% 30.08 in 10.0 mi WNW 15.0 mph - N/A   Clear
9:54 PM 45.0 °F 40.1 °F 37.0 °F 74% 30.10 in 10.0 mi WNW 9.2 mph - N/A   Clear
10:54 PM 43.0 °F 37.7 °F 37.0 °F 80% 30.11 in 10.0 mi WNW 9.2 mph - N/A   Clear
11:54 PM 42.1 °F 36.1 °F 37.0 °F 82% 30.13 in 10.0 mi West 10.4 mph - N/A   Clear